Weather in Zin'kov

Ukraine / Khmelnitsky District     49°04′06″N   27°04′23″E
temp.,
°C
wind,
m/s
gust,
m/s
humid.,
%
clouds,
%
prec.,
mm/h
press.,
hPa
HPBL,
m
20 january, wed
wed2023:00−10sse359378 0.1 1020154
02:00−9sse369485 0.3 1020202
05:00−8sse4794100 0.2 1018209
08:00−8sse4795100 0.4 1018239
11:00−6sse5793100 0.4 1019252
14:00−5sse4693100 0.4 1018281
17:00−6sse4796100 0.0 1019165
20:00−5sse4796100 0.3 1019175
21 january, thu
thu2123:00−5sse489591 0.3 1020186
02:00−5sse499758 0.3 1019167
05:00−5sse489535 0.0 1018139
08:00−5sse479365 0.0 1018134
11:00−1s478812 0.0 1018197
14:00+1s58886 0.0 1017201
17:00−1sse47921 0.0 1017121
20:00−1sse5109026 0.0 1017157
22 january, fri
fri2223:00−1s5118732 0.0 1016176
02:000s5118219 0.0 1015166
05:00+1s6117937 0.0 1013190
08:00+1s5127843 0.0 1013193
11:00+3s512791 0.0 1012259
14:00+3s511820 0.0 1011227
17:00+1sse5108370 0.0 1010181
20:00+1s5108578 0.0 1010177
23 january, sat
sat2323:00+2s41086100 0.0 1009182
02:00+2s51084100 0.0 1008183
05:00+2s51184100 0.0 1007181
08:00+2s41085100 0.0 1007174
11:00+3sse5108499 0.0 1006222
14:00+4sse488599 0.0 1004194
17:00+2se5791100 0.0 1003130
20:00+2se5109196 0.0 1002195
24 january, sun
sun2423:00+2sse51192100 0.0 1001287
02:00+2sse51196100 0.0 1000288
05:00+2s4990100 0.0 999172
08:00+1sse469172 0.0 100093
11:00+3sse359320 0.0 1000158
14:00+4se369448 0.0 999194
17:00+2ese349799 0.0 99870
20:00+2ese1195100 0.0 99822